Location: Waco, TX
(31.5480°N, 97.1670°W)
Time: 21:41:14
(UTC-06:00)

ISS - Pass Details

Date: 17 November 2017
Orbit: 402 x 407 km, 51.6° (Epoch: 13 December)

Event Time Altitude Azimuth Distance (km) Brightness Sun altitude
Rises 06:59:56 0° 302° (WNW) 2,312 - -0.6°
Exits shadow 07:00:04 - 301° (WNW) 2,259 -0.7 -0.5°
Reaches altitude 10° 07:02:14 10° 288° (WNW) 1,450 -1.7 -0.1°
Maximum altitude 07:04:56 24° 231° (SW) 869 -2.4 0.4°
Drops below altitude 10° 07:07:38 10° 175° (S) 1,443 -0.6 0.9°
Sets 07:09:55 0° 161° (SSE) 2,298 0.7 1.4°
